OPTICUBE 04

Last updated on Sat Dec 13 2025 00:03:49 GMT+0000 (Coordinated Universal Time)

1 41851U 16067D 25346.03917115 .00005304 00000+0 34310-3 0 9991 2 41851 98.0828 183.4650 0016735 34.0176 326.2120 15.08545995496945
UTC large
Height (km)
Speed (km/s)
/
Latitude / Longitude
Inclination (degrees)
Orbital Period (minutes)
Azimuth
Elevation
Range (km)
Doppler Factor

Next 0 passes for location: London (51.5072 / 0.1276)

Sorry there are no passes over London.